Chattanooga, TN

5:05 AM EST on November 22, 2017 (GMT -0500)
Lovell

Weather History for KCHA - March, 2012

Change the Weather History Date:

Wednesday, March 7, 2012

  Actual Average Record
Temperature  
Mean Temperature 58 °F 50 °F  
Max Temperature 69 °F 61 °F 82 °F (2000)
Min Temperature 46 °F 39 °F 2 °F (1899)
Degree Days  
Heating Degree Days 7 15  
Month to date heating degree days 80 113  
Since 1 July heating degree days 2265 2735  
Cooling Degree Days 0 0  
Month to date cooling degree days 0 0  
Year to date cooling degree days 2 0  
Growing Degree Days 7 (Base 50)    
Moisture  
Dew Point 40 °F    
Average Humidity 52    
Maximum Humidity 71    
Minimum Humidity 32    
Precipitation  
Precipitation 0.00 in 0.16 in 2.16 in (1961)
Month to date precipitation 0.87 1.15  
Year to date precipitation 10.22 10.90  
Snow  
Snow 0.00 in 0.10 in - ()
Month to date snowfall 0.0 0.4  
Since 1 July snowfall T 3.0  
Snow Depth 0.00 in    
Sea Level Pressure  
Sea Level Pressure 30.42 in    
Wind  
Wind Speed 7 mph (South)    
Max Wind Speed 21 mph    
Max Gust Speed 28 mph    
Visibility 10 miles    
Events      
T = Trace of Precipitation, MM = Missing Value Source: NWS Daily Summary

Daily Weather History Graph

Daily Weather History Graph

Search for Another Location

Airport or City:

Trip Planner

Search our weather history database for the weather conditions in past years. The results will help you decide how hot, cold, wet, or windy it might be!

Date:

Astronomy

Mar. 07, 2012 Rise Set
Actual Time 7:01 AM EST 6:42 PM EST
Civil Twilight 6:36 AM EST 7:07 PM EST
Nautical Twilight 6:07 AM EST 7:36 PM EST
Astronomical Twilight 5:37 AM EST 8:06 PM EST
Moon 6:16 PM EST (3/7) 6:11 AM EST (3/7)
Length of Visible Light 12h 31m
Length of Day
11h 40m
Waxing Gibbous, 99% of the Moon is Illuminated
Mar 7
Waxing Gibbous
Mar 8
Full
Mar 14
Last Quarter
Mar 22
New
Mar 30
First Quarter

Hourly Weather History & Observations

Time (EST) Temp. Windchill Dew Point Humidity Pressure Visibility Wind Dir Wind Speed Gust Speed Precip Events Conditions
12:53 AM 53.1 °F - 24.1 °F 32% 30.48 in 10.0 mi SSE 5.8 mph - N/A   Mostly Cloudy
1:53 AM 52.0 °F - 26.1 °F 37% 30.48 in 10.0 mi SSW 3.5 mph - N/A   Scattered Clouds
2:53 AM 48.9 °F - 28.9 °F 46% 30.47 in 10.0 mi SSW 3.5 mph - N/A   Scattered Clouds
3:53 AM 48.9 °F - 30.0 °F 48% 30.46 in 10.0 mi SSW 3.5 mph - N/A   Scattered Clouds
4:53 AM 48.9 °F - 33.1 °F 54% 30.46 in 10.0 mi Calm Calm - N/A   Mostly Cloudy
5:53 AM 48.9 °F - 35.1 °F 59% 30.48 in 10.0 mi Calm Calm - N/A   Mostly Cloudy
6:53 AM 46.0 °F 44.8 °F 37.0 °F 71% 30.49 in 10.0 mi SSW 3.5 mph - N/A   Scattered Clouds
7:53 AM 48.0 °F - 39.0 °F 71% 30.49 in 10.0 mi SSW 3.5 mph - N/A   Mostly Cloudy
8:53 AM 52.0 °F - 39.9 °F 63% 30.51 in 10.0 mi South 6.9 mph - N/A   Mostly Cloudy
9:53 AM 54.0 °F - 42.1 °F 64% 30.51 in 10.0 mi SW 4.6 mph - N/A   Mostly Cloudy
10:53 AM 61.0 °F - 45.0 °F 56% 30.50 in 10.0 mi South 16.1 mph 20.7 mph N/A   Mostly Cloudy
11:53 AM 64.0 °F - 45.0 °F 50% 30.48 in 10.0 mi South 11.5 mph 24.2 mph N/A   Mostly Cloudy
12:53 PM 66.0 °F - 44.1 °F 45% 30.44 in 10.0 mi South 15.0 mph 24.2 mph N/A   Mostly Cloudy
1:53 PM 66.9 °F - 45.0 °F 45% 30.41 in 10.0 mi SSE 6.9 mph 20.7 mph N/A   Mostly Cloudy
2:53 PM 68.0 °F - 44.1 °F 42% 30.38 in 10.0 mi SSE 16.1 mph 21.9 mph N/A   Mostly Cloudy
3:53 PM 66.9 °F - 44.1 °F 44% 30.36 in 10.0 mi SSE 12.7 mph 18.4 mph N/A   Mostly Cloudy
4:53 PM 68.0 °F - 44.1 °F 42% 30.33 in 10.0 mi SSE 9.2 mph 19.6 mph N/A   Mostly Cloudy
5:53 PM 66.9 °F - 44.1 °F 44% 30.33 in 10.0 mi SSE 11.5 mph 18.4 mph N/A   Mostly Cloudy
6:53 PM 64.0 °F - 44.1 °F 48% 30.33 in 10.0 mi SSE 5.8 mph - N/A   Mostly Cloudy
7:53 PM 63.0 °F - 46.0 °F 54% 30.34 in 10.0 mi SE 5.8 mph - N/A   Scattered Clouds
8:53 PM 62.1 °F - 46.9 °F 58% 30.34 in 10.0 mi SSE 4.6 mph - N/A   Scattered Clouds
9:53 PM 61.0 °F - 48.0 °F 62% 30.35 in 10.0 mi South 8.1 mph - N/A   Scattered Clouds
10:53 PM 60.1 °F - 48.0 °F 64% 30.33 in 10.0 mi South 4.6 mph - N/A   Scattered Clouds
11:53 PM 59.0 °F - 48.0 °F 67% 30.32 in 10.0 mi South 8.1 mph - N/A   Scattered Clouds